FW5335 Weather Reports


time (UTC)temp
F
wind
direction
speed
knots
gust
knots
rain 1hr
in
rain 24hr
in
rain mn
in
humidity
%
barometer
mb
20260506191518 56 0.0 0.9 0.00 0.00 0.00 65 1014.5
20260506190520 56 0.0 0.9 0.00 0.00 0.00 64 1014.4
20260506185518 57 0.0 0.9 0.00 0.00 0.00 62 1014.6
20260506184518 57 90 0.9 1.7 0.00 0.00 0.00 57 1014.2
20260506183539 57 90 1.7 2.6 0.00 0.00 0.00 55 1014.4
20260506182518 57 90 1.7 3.5 0.00 0.00 0.00 55 1014.4
20260506181538 58 90 0.9 2.6 0.00 0.00 0.00 56 1014.4
20260506180518 58 90 0.9 1.7 0.00 0.00 0.00 55 1014.5
20260506175543 58 90 0.9 1.7 0.00 0.00 0.00 55 1014.3
20260506174520 58 68 0.9 2.6 0.00 0.00 0.00 56 1014.3
20260506173646 58 90 0.9 3.5 0.00 0.00 0.00 55 1014.2
20260506172520 58 68 1.7 2.6 0.00 0.00 0.00 53 1014.4
20260506171529 59 113 0.9 3.5 0.00 0.00 0.00 51 1014.4
20260506170520 59 90 0.9 4.3 0.00 0.00 0.00 53 1014.2
20260506165540 59 90 1.7 4.3 0.00 0.00 0.00 53 1014.3
20260506164520 59 90 2.6 5.2 0.00 0.00 0.00 54 1014.1
20260506163540 59 113 1.7 4.3 0.00 0.00 0.00 55 1014.1
20260506162519 59 113 1.7 3.5 0.00 0.00 0.00 54 1014.0
20260506161518 59 135 1.7 5.2 0.00 0.00 0.00 51 1014.0
20260506160520 59 113 1.7 3.5 0.00 0.00 0.00 53 1014.1
20260506155520 59 135 1.7 3.5 0.00 0.00 0.00 51 1014.3
20260506154520 59 135 1.7 4.3 0.00 0.00 0.00 52 1014.3
20260506153520 59 45 1.7 6.1 0.00 0.00 0.00 55 1014.4
20260506152539 59 135 2.6 4.3 0.00 0.00 0.00 52 1014.3
20260506151520 59 68 1.7 3.5 0.00 0.00 0.00 52 1014.3
20260506150521 60 0 2.6 4.3 0.00 0.00 0.00 52 1014.4
20260506145524 60 68 2.6 5.2 0.00 0.00 0.00 51 1014.5
20260506144519 60 90 1.7 6.1 0.00 0.00 0.00 51 1014.6
20260506143520 61 113 1.7 5.2 0.00 0.00 0.00 48 1014.5
20260506142520 61 0 1.7 4.3 0.00 0.00 0.00 53 1014.6
20260506141539 61 135 1.7 5.2 0.00 0.00 0.00 51 1014.6
20260506140520 60 203 2.6 5.2 0.00 0.00 0.00 51 1014.6
20260506135540 60 158 2.6 6.1 0.00 0.00 0.00 49 1014.9
20260506134519 61 68 2.6 6.1 0.00 0.00 0.00 51 1014.9
20260506133519 61 90 2.6 7.0 0.00 0.00 0.00 50 1015.1
20260506132519 61 68 1.7 4.3 0.00 0.00 0.00 52 1014.9
20260506131539 60 90 2.6 6.1 0.00 0.00 0.00 56 1015.0
20260506130520 59 45 1.7 5.2 0.00 0.00 0.00 57 1015.1
20260506125520 59 68 2.6 7.0 0.00 0.00 0.00 56 1015.1
20260506124524 58 135 1.7 3.5 0.00 0.00 0.00 54 1015.2
20260506123520 58 113 3.5 7.0 0.00 0.00 0.00 54 1015.1
20260506122519 57 180 1.7 4.3 0.00 0.00 0.00 58 1015.0
20260506121519 57 45 2.6 5.2 0.00 0.00 0.00 55 1014.9
20260506120518 57 90 2.6 7.8 0.00 0.00 0.00 56 1015.0
20260506115519 57 68 3.5 6.1 0.00 0.00 0.00 60 1015.0
20260506114519 56 68 2.6 6.1 0.00 0.00 0.00 61 1015.1
20260506113520 56 90 2.6 7.8 0.00 0.00 0.00 61 1015.1
20260506112538 56 23 2.6 6.1 0.00 0.00 0.00 61 1015.4
20260506111520 56 113 1.7 3.5 0.00 0.00 0.00 60 1015.3
20260506110539 56 23 2.6 6.1 0.00 0.00 0.00 60 1015.4
20260506105519 56 23 2.6 4.3 0.00 0.00 0.00 61 1015.4
20260506061521 50 68 3.5 8.7 0.00 0.00 0.00 80 1014.1
20260506060559 50 68 3.5 7.0 0.00 0.00 0.00 80 1014.1
20260506050518 50 68 1.7 3.5 0.00 0.00 0.00 80 1014.0
20260506044519 50 68 3.5 7.0 0.00 0.00 0.00 79 1013.9
20260506043519 50 68 1.7 7.0 0.00 0.00 0.00 79 1013.9
20260506042523 50 68 2.6 5.2 0.00 0.00 0.00 79 1013.8
20260506041518 50 68 0.9 3.5 0.00 0.00 0.00 79 1013.7
20260506040519 50 68 1.7 3.5 0.00 0.00 0.00 79 1013.7
20260506035539 50 68 1.7 3.5 0.00 0.00 0.00 78 1013.6
20260506034518 50 23 1.7 4.3 0.00 0.00 0.00 78 1013.7
20260506033517 50 45 1.7 3.5 0.00 0.00 0.00 78 1013.8
20260506032528 51 23 1.7 3.5 0.00 0.00 0.00 78 1013.7
20260506031524 51 45 1.7 6.1 0.00 0.00 0.00 78 1013.7
20260506030521 51 23 1.7 4.3 0.00 0.00 0.00 78 1013.8
20260506025518 51 23 1.7 4.3 0.00 0.00 0.00 77 1013.8
20260506024525 51 23 0.9 3.5 0.00 0.00 0.00 77 1013.7
20260506023517 51 23 2.6 6.1 0.00 0.00 0.00 77 1013.6
20260506022517 51 23 1.7 3.5 0.00 0.00 0.00 77 1013.7
20260506021518 51 23 2.6 7.0 0.00 0.00 0.00 77 1013.7
20260506020533 50 23 2.6 6.1 0.00 0.00 0.00 77 1013.7
20260506015540 50 23 1.7 3.5 0.00 0.00 0.00 77 1013.7
20260506014518 50 0 1.7 3.5 0.00 0.00 0.00 76 1013.7
20260506013519 50 45 2.6 7.0 0.00 0.00 0.00 76 1013.8
20260506012517 50 0 2.6 6.1 0.00 0.00 0.00 76 1013.9
20260506011527 50 0 1.7 4.3 0.00 0.00 0.00 76 1013.9
20260506010541 50 315 0.9 3.5 0.00 0.00 0.00 76 1014.0
20260506005520 51 315 1.7 3.5 0.00 0.00 0.00 75 1014.2
20260506004523 51 23 1.7 3.5 0.00 0.00 0.00 76 1014.2
20260506003518 51 23 1.7 2.6 0.00 0.00 0.00 75 1014.2
20260506002518 51 338 1.7 5.2 0.00 0.00 0.00 75 1014.1
20260506001518 51 23 2.6 7.0 0.00 0.00 0.00 75 1014.2
20260506000518 51 23 0.9 2.6 0.00 0.00 0.00 75 1014.2
20260505235518 51 23 1.7 3.5 0.00 0.00 0.00 75 1014.1
20260505234518 51 315 0.9 3.5 0.00 0.00 0.00 75 1014.2
20260505233518 51 315 0.9 3.5 0.00 0.00 0.00 75 1014.4
20260505232518 51 23 0.9 2.6 0.00 0.00 0.00 74 1014.3
20260505231518 51 23 2.6 3.5 0.00 0.00 0.00 74 1014.4
20260505230517 51 0 3.5 5.2 0.00 0.00 0.00 74 1014.5
20260505225538 51 338 1.7 3.5 0.00 0.00 0.00 74 1014.6
20260505224545 52 0 1.7 3.5 0.00 0.00 0.00 74 1014.3
20260505223518 52 0 1.7 5.2 0.00 0.00 0.00 73 1014.4
20260505222547 52 23 2.6 4.3 0.00 0.00 0.00 73 1014.4
20260505221518 52 0 2.6 8.7 0.00 0.00 0.00 73 1014.4
20260505220518 52 45 1.7 4.3 0.00 0.00 0.00 72 1014.5
20260505215518 52 23 0.9 2.6 0.00 0.00 0.00 70 1014.5
20260505214518 53 23 1.7 4.3 0.00 0.00 0.00 70 1014.6
20260505213535 53 23 3.5 7.0 0.00 0.00 0.00 70 1014.5
20260505212518 53 23 4.3 8.7 0.00 0.00 0.00 69 1014.5
20260505211537 53 23 4.3 8.7 0.00 0.00 0.00 68 1014.5
20260505210523 53 23 2.6 7.8 0.00 0.00 0.00 68 1014.5
20260505205523 53 23 5.2 8.7 0.00 0.00 0.00 67 1014.1
20260505204538 54 23 5.2 9.6 0.00 0.00 0.00 67 1014.3
20260505203518 54 23 5.2 7.8 0.00 0.00 0.00 67 1014.3
20260505202519 54 23 3.5 7.0 0.00 0.00 0.00 67 1014.2
20260505201518 54 45 2.6 4.3 0.00 0.00 0.00 67 1014.2
20260505200538 54 23 3.5 7.8 0.00 0.00 0.00 67 1014.3
20260505195517 54 315 2.6 5.2 0.00 0.00 0.00 66 1014.3
20260505194538 54 23 1.7 4.3 0.00 0.00 0.00 65 1013.9
20260505193517 54 0 2.6 3.5 0.00 0.00 0.00 65 1014.0
20260505192518 55 338 3.5 7.0 0.00 0.00 0.00 64 1013.9